Time,TemperatureF,DewpointF,PressureIn,WindDirection,WindDirectionDegrees,WindSpeedMPH,WindSpeedGustMPH,Humidity,HourlyPrecipIn,Conditions,Clouds,dailyrainin,SoftwareType,DateUTC
2013-01-13 14:05:00,54.5,22.1,30.01,NNW,342,5.0,11.0,28,0.00,,---,0.00,VWS V12.07,2013-01-13 22:05:00,
2013-01-13 14:10:00,54.8,24.0,30.01,North,355,10.0,10.0,30,0.00,,---,0.00,VWS V12.07,2013-01-13 22:10:00,
2013-01-13 14:20:00,54.8,24.8,30.01,North,355,5.0,8.0,31,0.00,,---,0.00,VWS V12.07,2013-01-13 22:20:00,
2013-01-13 14:25:00,55.1,24.2,30.01,WNW,292,5.0,9.0,30,0.00,,---,0.00,VWS V12.07,2013-01-13 22:25:00,
2013-01-13 14:30:00,54.8,24.0,30.01,NW,323,7.0,9.0,30,0.00,,---,0.00,VWS V12.07,2013-01-13 22:30:00,
2013-01-13 14:35:00,54.5,22.1,30.01,NW,325,4.0,9.0,28,0.00,,---,0.00,VWS V12.07,2013-01-13 22:35:00,
2013-01-13 14:40:00,54.7,23.9,30.02,WSW,254,6.0,8.0,30,0.00,,---,0.00,VWS V12.07,2013-01-13 22:40:00,
2013-01-13 14:45:00,54.7,23.9,30.02,North,11,0.0,9.0,30,0.00,,---,0.00,VWS V12.07,2013-01-13 22:45:00,
2013-01-13 14:50:00,55.6,23.9,30.02,NNW,346,0.0,7.0,29,0.00,,---,0.00,VWS V12.07,2013-01-13 22:50:00,
2013-01-13 15:00:00,55.3,21.9,30.01,NW,317,0.0,4.0,27,0.00,,---,0.00,VWS V12.07,2013-01-13 23:00:00,
2013-01-13 15:10:00,55.0,22.5,30.02,NW,306,4.0,10.0,28,0.00,,---,0.00,VWS V12.07,2013-01-13 23:10:00,
2013-01-13 15:15:00,54.8,21.5,30.02,NNW,341,4.0,6.0,27,0.00,,---,0.00,VWS V12.07,2013-01-13 23:15:00,
2013-01-13 15:20:00,55.1,21.7,30.02,NNE,28,0.0,7.0,27,0.00,,---,0.00,VWS V12.07,2013-01-13 23:20:00,
2013-01-13 15:25:00,55.0,20.8,30.02,NW,313,5.0,9.0,26,0.00,,---,0.00,VWS V12.07,2013-01-13 23:25:00,
2013-01-13 15:30:00,54.8,21.5,30.02,WNW,293,5.0,7.0,27,0.00,,---,0.00,VWS V12.07,2013-01-13 23:30:00,
2013-01-13 15:35:00,54.7,21.4,30.02,North,360,1.0,5.0,27,0.00,,---,0.00,VWS V12.07,2013-01-13 23:35:00,
2013-01-13 15:40:00,54.5,21.2,30.01,NW,307,6.0,8.0,27,0.00,,---,0.00,VWS V12.07,2013-01-13 23:40:00,
2013-01-13 15:50:00,54.1,21.7,30.01,North,5,6.0,7.0,28,0.00,,---,0.00,VWS V12.07,2013-01-13 23:50:00,
2013-01-13 16:00:00,54.4,21.1,30.01,North,350,3.0,6.0,27,0.00,,---,0.00,VWS V12.07,2013-01-14 00:00:00,
2013-01-13 16:05:00,54.2,21.0,30.01,NNW,333,4.0,6.0,27,0.00,,---,0.00,VWS V12.07,2013-01-14 00:05:00,
2013-01-13 16:10:00,53.9,19.8,30.01,NNW,336,2.0,5.0,26,0.00,,---,0.00,VWS V12.07,2013-01-14 00:10:00,
2013-01-13 16:15:00,53.8,20.6,30.01,NW,321,3.0,5.0,27,0.00,,---,0.00,VWS V12.07,2013-01-14 00:15:00,
2013-01-13 16:20:00,53.6,20.5,30.01,North,5,4.0,7.0,27,0.00,,---,0.00,VWS V12.07,2013-01-14 00:20:00,
2013-01-13 16:25:00,53.5,20.4,30.02,NNW,332,6.0,7.0,27,0.00,,---,0.00,VWS V12.07,2013-01-14 00:25:00,
2013-01-13 16:30:00,53.2,20.1,30.02,NNW,345,4.0,7.0,27,0.00,,---,0.00,VWS V12.07,2013-01-14 00:30:00,
2013-01-13 16:35:00,52.9,21.5,30.02,WNW,289,2.0,5.0,29,0.00,,---,0.00,VWS V12.07,2013-01-14 00:35:00,
2013-01-13 16:40:00,52.8,23.8,30.01,North,355,0.0,6.0,32,0.00,,---,0.00,VWS V12.07,2013-01-14 00:40:00,
2013-01-13 16:45:00,52.6,24.3,30.01,NW,307,2.0,5.0,33,0.00,,---,0.00,VWS V12.07,2013-01-14 00:45:00,
2013-01-13 16:50:00,52.5,25.7,30.01,NW,321,1.0,5.0,35,0.00,,---,0.00,VWS V12.07,2013-01-14 00:50:00,
2013-01-13 16:55:00,52.2,26.1,30.01,NNW,335,1.0,6.0,36,0.00,,---,0.00,VWS V12.07,2013-01-14 00:55:00,
2013-01-13 17:00:00,51.9,26.5,30.01,NNW,335,0.0,0.0,37,0.00,,---,0.00,VWS V12.07,2013-01-14 01:00:00,
2013-01-13 17:05:00,51.7,26.3,30.01,NNW,335,0.0,2.0,37,0.00,,---,0.00,VWS V12.07,2013-01-14 01:05:00,
2013-01-13 17:15:00,51.1,27.0,30.01,NNW,335,0.0,2.0,39,0.00,,---,0.00,VWS V12.07,2013-01-14 01:15:00,
2013-01-13 17:25:00,50.4,28.2,30.02,NNE,14,0.0,2.0,42,0.00,,---,0.00,VWS V12.07,2013-01-14 01:25:00,
2013-01-13 17:30:00,49.9,27.7,30.02,NNE,14,0.0,1.0,42,0.00,,---,0.00,VWS V12.07,2013-01-14 01:30:00,
2013-01-13 17:35:00,49.5,28.0,30.02,NNE,14,0.0,1.0,43,0.00,,---,0.00,VWS V12.07,2013-01-14 01:35:00,
2013-01-13 17:40:00,48.8,28.4,30.02,NNE,14,0.0,1.0,45,0.00,,---,0.00,VWS V12.07,2013-01-14 01:40:00,